Main page


Airports :

Spadeadam, England

RAF Spadeadam

latitude: 55-03N, longitude: 002-33W, elevation: 325 m

Current weather observation

The report was made 58 minutes ago, at 16:50 UTC
Wind 13 kt from the West/Southwest
Temperature 5°C
Humidity 70%
Pressure 1030 hPa
Visibility 10 km or more
Few clouds at a height of 3800 ft

METAR: EGOM 201650Z 25013KT 9999 FEW038 05/M00 Q1030 BLU

Time: 17:48 (17:48 UTC)

TAF: missing

Weather observations and forecasts of more than 4000 airports (METAR and TAF reports).

The available stations are represented by yellow and red dots on the map.

Hover mouse over dot to see the name of the station.

Then click to see weather observations and forecasts.

To change the map : click on the green buttons with a black cross to zoom in, on the green button with a dash to zoom out, or on the green arrows for adjacent maps.